Time,TemperatureF,DewpointF,PressureIn,WindDirection,WindDirectionDegrees,WindSpeedMPH,WindSpeedGustMPH,Humidity,HourlyPrecipIn,Conditions,Clouds,dailyrainin,SoftwareType,DateUTC
2013-06-26 00:00:00,79.2,75.3,30.03,WSW,248,12.0,20.0,88,0.00,,,0.00,WUHU216DAVISVP2,2013-06-26 04:00:00,
2013-06-26 00:01:00,79.2,75.4,30.03,SW,234,13.0,20.0,88,0.00,,,0.00,WUHU216DAVISVP2,2013-06-26 04:01:00,
2013-06-26 00:02:00,79.2,75.4,30.03,West,266,9.0,20.0,88,0.00,,,0.00,WUHU216DAVISVP2,2013-06-26 04:02:00,
2013-06-26 00:07:00,79.2,75.4,30.03,West,272,9.0,18.0,88,0.00,,,0.00,WUHU216DAVISVP2,2013-06-26 04:07:00,
2013-06-26 00:12:00,79.2,75.7,30.03,West,259,14.0,20.0,89,0.00,,,0.00,WUHU216DAVISVP2,2013-06-26 04:12:00,
2013-06-26 00:17:00,79.2,75.7,30.03,West,267,16.0,21.0,89,0.00,,,0.00,WUHU216DAVISVP2,2013-06-26 04:17:00,
2013-06-26 00:22:00,79.2,75.7,30.03,WSW,245,11.0,21.0,89,0.00,,,0.00,WUHU216DAVISVP2,2013-06-26 04:22:00,
2013-06-26 00:27:00,79.2,75.4,30.03,West,265,14.0,22.0,88,0.00,,,0.00,WUHU216DAVISVP2,2013-06-26 04:27:00,
2013-06-26 00:30:00,79.2,75.3,30.03,WSW,248,12.0,24.0,88,0.00,,,0.00,WUHU216DAVISVP2,2013-06-26 04:30:00,
2013-06-26 00:32:00,79.2,75.4,30.03,WSW,251,13.0,24.0,88,0.00,,,0.00,WUHU216DAVISVP2,2013-06-26 04:32:00,
2013-06-26 00:39:00,79.3,75.8,30.03,WSW,238,17.0,24.0,89,0.00,,,0.00,WUHU216DAVISVP2,2013-06-26 04:39:00,
2013-06-26 00:44:00,79.2,75.7,30.02,WSW,257,10.0,24.0,89,0.00,,,0.00,WUHU216DAVISVP2,2013-06-26 04:44:00,
2013-06-26 00:49:00,79.2,75.7,30.03,WSW,240,8.0,22.0,89,0.00,,,0.00,WUHU216DAVISVP2,2013-06-26 04:49:00,
2013-06-26 00:54:00,79.2,75.7,30.02,West,266,7.0,22.0,89,0.00,,,0.00,WUHU216DAVISVP2,2013-06-26 04:54:00,
2013-06-26 00:59:00,79.2,75.7,30.02,West,268,6.0,17.0,89,0.00,,,0.00,WUHU216DAVISVP2,2013-06-26 04:59:00,
2013-06-26 01:00:00,79.2,76.0,30.02,West,270,11.0,22.0,90,0.00,,,0.00,WUHU216DAVISVP2,2013-06-26 05:00:00,
2013-06-26 01:04:00,79.2,76.0,30.02,West,269,9.0,17.0,90,0.00,,,0.00,WUHU216DAVISVP2,2013-06-26 05:04:00,
2013-06-26 01:09:00,79.1,75.6,30.02,West,266,11.0,17.0,89,0.00,,,0.00,WUHU216DAVISVP2,2013-06-26 05:09:00,
2013-06-26 01:14:00,79.2,75.7,30.02,West,276,11.0,18.0,89,0.00,,,0.00,WUHU216DAVISVP2,2013-06-26 05:14:00,
2013-06-26 01:19:00,79.1,75.6,30.02,West,275,7.0,18.0,89,0.00,,,0.00,WUHU216DAVISVP2,2013-06-26 05:19:00,
2013-06-26 01:24:00,79.1,75.6,30.02,West,270,10.0,18.0,89,0.00,,,0.00,WUHU216DAVISVP2,2013-06-26 05:24:00,
2013-06-26 01:29:00,79.1,75.6,30.02,SW,223,10.0,21.0,89,0.00,,,0.00,WUHU216DAVISVP2,2013-06-26 05:29:00,
2013-06-26 01:30:00,79.1,75.9,30.02,West,270,10.0,21.0,90,0.00,,,0.00,WUHU216DAVISVP2,2013-06-26 05:30:00,
2013-06-26 01:34:00,79.1,75.9,30.02,West,266,7.0,21.0,90,0.00,,,0.00,WUHU216DAVISVP2,2013-06-26 05:34:00,
2013-06-26 01:39:00,79.1,75.9,30.02,WNW,284,14.0,21.0,90,0.00,,,0.00,WUHU216DAVISVP2,2013-06-26 05:39:00,
2013-06-26 01:44:00,79.1,75.9,30.01,WSW,251,10.0,21.0,90,0.00,,,0.00,WUHU216DAVISVP2,2013-06-26 05:44:00,
2013-06-26 01:49:00,79.1,75.9,30.01,West,261,6.0,18.0,90,0.00,,,0.00,WUHU216DAVISVP2,2013-06-26 05:49:00,
2013-06-26 01:54:00,79.0,75.8,30.01,West,267,13.0,18.0,90,0.00,,,0.00,WUHU216DAVISVP2,2013-06-26 05:54:00,
2013-06-26 01:59:00,79.0,75.8,30.01,West,264,11.0,19.0,90,0.00,,,0.00,WUHU216DAVISVP2,2013-06-26 05:59:00,
2013-06-26 02:00:00,79.0,75.8,30.01,WSW,248,11.0,19.0,90,0.00,,,0.00,WUHU216DAVISVP2,2013-06-26 06:00:00,
2013-06-26 02:04:00,79.1,75.9,30.01,West,267,7.0,19.0,90,0.00,,,0.00,WUHU216DAVISVP2,2013-06-26 06:04:00,
2013-06-26 02:09:00,79.1,75.9,30.01,SW,231,13.0,19.0,90,0.00,,,0.00,WUHU216DAVISVP2,2013-06-26 06:09:00,
2013-06-26 02:13:00,79.1,75.9,30.01,West,274,10.0,19.0,90,0.00,,,0.00,WUHU216DAVISVP2,2013-06-26 06:13:00,
2013-06-26 02:18:00,79.0,75.8,30.01,West,276,9.0,19.0,90,0.00,,,0.00,WUHU216DAVISVP2,2013-06-26 06:18:00,
2013-06-26 02:23:00,78.9,75.7,30.01,West,274,8.0,19.0,90,0.00,,,0.00,WUHU216DAVISVP2,2013-06-26 06:23:00,
2013-06-26 02:29:00,78.8,75.6,30.01,West,264,10.0,18.0,90,0.00,,,0.00,WUHU216DAVISVP2,2013-06-26 06:29:00,
2013-06-26 02:30:00,78.8,75.6,30.01,West,270,10.0,19.0,90,0.00,,,0.00,WUHU216DAVISVP2,2013-06-26 06:30:00,
2013-06-26 02:34:00,78.8,75.6,30.01,West,264,13.0,18.0,90,0.00,,,0.00,WUHU216DAVISVP2,2013-06-26 06:34:00,
2013-06-26 02:38:00,78.8,75.6,30.02,West,260,9.0,18.0,90,0.00,,,0.00,WUHU216DAVISVP2,2013-06-26 06:38:00,
2013-06-26 02:43:00,78.7,75.5,30.01,WNW,289,6.0,14.0,90,0.00,,,0.00,WUHU216DAVISVP2,2013-06-26 06:43:00,
2013-06-26 02:48:00,78.7,75.5,30.01,West,259,7.0,17.0,90,0.00,,,0.00,WUHU216DAVISVP2,2013-06-26 06:48:00,
2013-06-26 02:53:00,78.6,75.1,30.01,West,271,8.0,17.0,89,0.00,,,0.00,WUHU216DAVISVP2,2013-06-26 06:53:00,
2013-06-26 02:58:00,78.6,75.1,30.02,WNW,297,10.0,17.0,89,0.00,,,0.00,WUHU216DAVISVP2,2013-06-26 06:58:00,
2013-06-26 03:00:00,78.6,75.1,30.01,West,270,9.0,17.0,89,0.00,,,0.00,WUHU216DAVISVP2,2013-06-26 07:00:00,
2013-06-26 03:03:00,78.6,75.1,30.02,West,271,6.0,17.0,89,0.00,,,0.00,WUHU216DAVISVP2,2013-06-26 07:03:00,
2013-06-26 03:08:00,78.6,75.1,30.02,WNW,285,5.0,13.0,89,0.00,,,0.00,WUHU216DAVISVP2,2013-06-26 07:08:00,
2013-06-26 03:14:00,78.5,75.0,30.01,West,260,4.0,13.0,89,0.00,,,0.00,WUHU216DAVISVP2,2013-06-26 07:14:00,
2013-06-26 03:18:00,78.5,74.6,30.02,West,276,11.0,12.0,88,0.00,,,0.00,WUHU216DAVISVP2,2013-06-26 07:18:00,
2013-06-26 03:24:00,78.4,74.5,30.02,West,277,7.0,12.0,88,0.00,,,0.00,WUHU216DAVISVP2,2013-06-26 07:24:00,
2013-06-26 03:29:00,78.4,74.5,30.02,West,279,5.0,12.0,88,0.00,,,0.00,WUHU216DAVISVP2,2013-06-26 07:29:00,
2013-06-26 03:30:00,78.4,74.5,30.02,West,270,7.0,12.0,88,0.00,,,0.00,WUHU216DAVISVP2,2013-06-26 07:30:00,
2013-06-26 03:34:00,78.4,74.5,30.01,West,264,4.0,11.0,88,0.00,,,0.00,WUHU216DAVISVP2,2013-06-26 07:34:00,
2013-06-26 03:39:00,78.4,74.9,30.01,West,263,8.0,10.0,89,0.00,,,0.00,WUHU216DAVISVP2,2013-06-26 07:39:00,
2013-06-26 03:44:00,78.4,74.9,30.02,West,275,6.0,11.0,89,0.00,,,0.00,WUHU216DAVISVP2,2013-06-26 07:44:00,
2013-06-26 03:49:00,78.5,75.0,30.01,WSW,252,6.0,15.0,89,0.00,,,0.00,WUHU216DAVISVP2,2013-06-26 07:49:00,
2013-06-26 03:54:00,78.4,74.9,30.01,WSW,250,9.0,15.0,89,0.00,,,0.00,WUHU216DAVISVP2,2013-06-26 07:54:00,
2013-06-26 03:58:00,78.4,74.9,30.01,WSW,252,7.0,15.0,89,0.00,,,0.00,WUHU216DAVISVP2,2013-06-26 07:58:00,
2013-06-26 04:00:00,78.4,74.9,30.01,West,270,7.0,15.0,89,0.00,,,0.00,WUHU216DAVISVP2,2013-06-26 08:00:00,
2013-06-26 04:03:00,78.4,74.9,30.01,West,271,10.0,15.0,89,0.00,,,0.00,WUHU216DAVISVP2,2013-06-26 08:03:00,
2013-06-26 04:08:00,78.4,74.9,30.01,West,262,7.0,11.0,89,0.00,,,0.00,WUHU216DAVISVP2,2013-06-26 08:08:00,
2013-06-26 04:14:00,78.4,74.6,30.01,West,273,6.0,14.0,88,0.00,,,0.00,WUHU216DAVISVP2,2013-06-26 08:14:00,
2013-06-26 04:19:00,78.4,74.9,30.01,WNW,282,9.0,14.0,89,0.00,,,0.00,WUHU216DAVISVP2,2013-06-26 08:19:00,
2013-06-26 04:24:00,78.4,74.6,30.01,WSW,247,9.0,14.0,88,0.00,,,0.00,WUHU216DAVISVP2,2013-06-26 08:24:00,
2013-06-26 04:29:00,78.3,74.5,30.01,WSW,254,5.0,13.0,88,0.00,,,0.00,WUHU216DAVISVP2,2013-06-26 08:29:00,
2013-06-26 04:30:00,78.3,74.5,30.01,West,270,7.0,14.0,88,0.00,,,0.00,WUHU216DAVISVP2,2013-06-26 08:30:00,
2013-06-26 04:34:00,78.3,74.5,30.02,WSW,257,7.0,13.0,88,0.00,,,0.00,WUHU216DAVISVP2,2013-06-26 08:34:00,
2013-06-26 04:39:00,78.2,74.4,30.02,West,278,11.0,13.0,88,0.00,,,0.00,WUHU216DAVISVP2,2013-06-26 08:39:00,
2013-06-26 04:44:00,78.2,74.4,30.01,West,269,4.0,13.0,88,0.00,,,0.00,WUHU216DAVISVP2,2013-06-26 08:44:00,
2013-06-26 04:49:00,78.1,74.3,30.01,West,267,4.0,13.0,88,0.00,,,0.00,WUHU216DAVISVP2,2013-06-26 08:49:00,
2013-06-26 04:54:00,78.1,73.9,30.02,West,267,9.0,13.0,87,0.00,,,0.00,WUHU216DAVISVP2,2013-06-26 08:54:00,
2013-06-26 04:59:00,78.1,73.9,30.02,West,264,5.0,13.0,87,0.00,,,0.00,WUHU216DAVISVP2,2013-06-26 08:59:00,
2013-06-26 05:00:00,78.1,74.3,30.02,West,270,7.0,13.0,88,0.00,,,0.00,WUHU216DAVISVP2,2013-06-26 09:00:00,
2013-06-26 05:03:00,78.0,74.2,30.02,West,279,5.0,13.0,88,0.00,,,0.00,WUHU216DAVISVP2,2013-06-26 09:03:00,
2013-06-26 05:08:00,78.0,74.2,30.02,West,259,4.0,13.0,88,0.00,,,0.00,WUHU216DAVISVP2,2013-06-26 09:08:00,
2013-06-26 05:14:00,77.9,74.1,30.02,West,264,8.0,11.0,88,0.00,,,0.00,WUHU216DAVISVP2,2013-06-26 09:14:00,
2013-06-26 05:19:00,77.9,74.1,30.01,West,261,7.0,11.0,88,0.00,,,0.00,WUHU216DAVISVP2,2013-06-26 09:19:00,
2013-06-26 05:24:00,77.9,74.1,30.02,West,268,6.0,11.0,88,0.00,,,0.00,WUHU216DAVISVP2,2013-06-26 09:24:00,
2013-06-26 05:29:00,77.8,74.0,30.02,West,274,5.0,10.0,88,0.00,,,0.00,WUHU216DAVISVP2,2013-06-26 09:29:00,
2013-06-26 05:30:00,77.8,74.0,30.02,West,270,6.0,11.0,88,0.00,,,0.00,WUHU216DAVISVP2,2013-06-26 09:30:00,
2013-06-26 05:33:00,77.8,74.0,30.02,West,259,7.0,11.0,88,0.00,,,0.00,WUHU216DAVISVP2,2013-06-26 09:33:00,
2013-06-26 05:39:00,77.8,74.0,30.02,WNW,283,3.0,11.0,88,0.00,,,0.00,WUHU216DAVISVP2,2013-06-26 09:39:00,
2013-06-26 05:44:00,77.7,73.9,30.02,WSW,257,4.0,11.0,88,0.00,,,0.00,WUHU216DAVISVP2,2013-06-26 09:44:00,
2013-06-26 05:49:00,77.7,73.9,30.02,West,273,7.0,11.0,88,0.00,,,0.00,WUHU216DAVISVP2,2013-06-26 09:49:00,
2013-06-26 05:54:00,77.7,73.9,30.02,West,266,5.0,10.0,88,0.00,,,0.00,WUHU216DAVISVP2,2013-06-26 09:54:00,
2013-06-26 05:58:00,77.7,73.9,30.02,WSW,245,6.0,10.0,88,0.00,,,0.00,WUHU216DAVISVP2,2013-06-26 09:58:00,
2013-06-26 06:00:00,77.7,73.9,30.02,West,270,6.0,11.0,88,0.00,,,0.00,WUHU216DAVISVP2,2013-06-26 10:00:00,
2013-06-26 06:03:00,77.7,73.9,30.02,WNW,284,7.0,10.0,88,0.00,,,0.00,WUHU216DAVISVP2,2013-06-26 10:03:00,
2013-06-26 06:08:00,77.7,74.2,30.02,WSW,251,9.0,10.0,89,0.00,,,0.00,WUHU216DAVISVP2,2013-06-26 10:08:00,
2013-06-26 06:13:00,77.7,73.9,30.02,West,269,6.0,10.0,88,0.00,,,0.00,WUHU216DAVISVP2,2013-06-26 10:13:00,
2013-06-26 06:18:00,77.7,74.2,30.03,West,275,5.0,10.0,89,0.00,,,0.00,WUHU216DAVISVP2,2013-06-26 10:18:00,
2013-06-26 06:23:00,77.7,74.2,30.03,West,279,3.0,10.0,89,0.00,,,0.00,WUHU216DAVISVP2,2013-06-26 10:23:00,
2013-06-26 06:28:00,77.7,74.2,30.03,West,274,6.0,10.0,89,0.00,,,0.00,WUHU216DAVISVP2,2013-06-26 10:28:00,
2013-06-26 06:30:00,77.7,74.2,30.03,West,270,6.0,10.0,89,0.00,,,0.00,WUHU216DAVISVP2,2013-06-26 10:30:00,
2013-06-26 06:33:00,77.8,74.3,30.03,West,274,7.0,10.0,89,0.00,,,0.00,WUHU216DAVISVP2,2013-06-26 10:33:00,
2013-06-26 06:38:00,77.9,74.4,30.03,West,274,6.0,10.0,89,0.00,,,0.00,WUHU216DAVISVP2,2013-06-26 10:38:00,
2013-06-26 06:43:00,78.0,74.5,30.03,West,281,5.0,10.0,89,0.00,,,0.00,WUHU216DAVISVP2,2013-06-26 10:43:00,
2013-06-26 06:48:00,78.1,74.6,30.04,West,274,4.0,10.0,89,0.00,,,0.00,WUHU216DAVISVP2,2013-06-26 10:48:00,
2013-06-26 06:53:00,78.0,74.5,30.03,West,264,3.0,8.0,89,0.00,,,0.00,WUHU216DAVISVP2,2013-06-26 10:53:00,
2013-06-26 06:58:00,78.1,74.6,30.04,WNW,286,6.0,8.0,89,0.00,,,0.00,WUHU216DAVISVP2,2013-06-26 10:58:00,
2013-06-26 07:00:00,78.1,74.6,30.04,West,270,5.0,9.0,89,0.00,,,0.00,WUHU216DAVISVP2,2013-06-26 11:00:00,
2013-06-26 07:03:00,78.0,74.5,30.04,WNW,303,2.0,8.0,89,0.00,,,0.00,WUHU216DAVISVP2,2013-06-26 11:03:00,
2013-06-26 07:08:00,78.1,74.6,30.04,West,275,3.0,7.0,89,0.00,,,0.00,WUHU216DAVISVP2,2013-06-26 11:08:00,
2013-06-26 07:13:00,78.4,74.9,30.04,WNW,289,3.0,7.0,89,0.00,,,0.00,WUHU216DAVISVP2,2013-06-26 11:13:00,
2013-06-26 07:18:00,78.6,75.1,30.04,WSW,243,3.0,7.0,89,0.00,,,0.00,WUHU216DAVISVP2,2013-06-26 11:18:00,
2013-06-26 07:23:00,78.7,74.9,30.04,West,272,3.0,7.0,88,0.00,,,0.00,WUHU216DAVISVP2,2013-06-26 11:23:00,
2013-06-26 07:28:00,78.9,75.1,30.04,WSW,248,2.0,8.0,88,0.00,,,0.00,WUHU216DAVISVP2,2013-06-26 11:28:00,
2013-06-26 07:30:00,78.9,75.0,30.04,West,270,4.0,10.0,88,0.00,,,0.00,WUHU216DAVISVP2,2013-06-26 11:30:00,
2013-06-26 07:33:00,79.0,74.8,30.03,West,275,6.0,11.0,87,0.00,,,0.00,WUHU216DAVISVP2,2013-06-26 11:33:00,
2013-06-26 07:38:00,79.1,74.9,30.04,West,269,5.0,12.0,87,0.00,,,0.00,WUHU216DAVISVP2,2013-06-26 11:38:00,
2013-06-26 07:45:00,79.4,75.2,30.03,West,271,6.0,7.0,87,0.00,,,0.00,Wunderground v.1.15,2013-06-26 11:45:00,
2013-06-26 07:50:00,79.5,74.9,30.03,West,278,7.0,9.0,86,0.00,,,0.00,Wunderground v.1.15,2013-06-26 11:50:00,
2013-06-26 07:55:00,79.7,75.1,30.03,SW,236,8.0,10.0,86,0.00,,,0.00,Wunderground v.1.15,2013-06-26 11:55:00,
2013-06-26 08:00:00,79.9,75.3,30.04,West,276,8.0,8.0,86,0.00,,,0.00,Wunderground v.1.15,2013-06-26 12:00:00,
2013-06-26 08:10:00,80.4,75.1,30.03,West,274,8.0,9.0,84,0.00,,,0.00,Wunderground v.1.15,2013-06-26 12:10:00,
2013-06-26 08:15:00,80.2,74.9,30.03,West,277,8.0,10.0,84,0.00,,,0.00,Wunderground v.1.15,2013-06-26 12:15:00,
2013-06-26 08:20:00,79.9,74.6,30.03,WSW,257,10.0,13.0,84,0.00,,,0.00,Wunderground v.1.15,2013-06-26 12:20:00,
2013-06-26 08:25:00,79.8,74.5,30.03,WNW,283,10.0,13.0,84,0.00,,,0.00,Wunderground v.1.15,2013-06-26 12:25:00,
2013-06-26 08:30:00,79.8,74.5,30.03,West,264,9.0,11.0,84,0.00,,,0.00,Wunderground v.1.15,2013-06-26 12:30:00,
2013-06-26 08:40:00,79.9,74.6,30.03,West,266,9.0,12.0,84,0.00,,,0.00,Wunderground v.1.15,2013-06-26 12:40:00,
2013-06-26 08:45:00,80.0,74.7,30.03,West,277,7.0,12.0,84,0.00,,,0.00,Wunderground v.1.15,2013-06-26 12:45:00,
2013-06-26 08:50:00,80.1,74.5,30.04,West,271,7.0,7.0,83,0.00,,,0.00,Wunderground v.1.15,2013-06-26 12:50:00,
2013-06-26 08:55:00,80.5,74.9,30.04,WSW,239,7.0,7.0,83,0.00,,,0.00,Wunderground v.1.15,2013-06-26 12:55:00,
2013-06-26 09:00:00,81.2,75.2,30.03,WSW,251,6.0,9.0,82,0.00,,,0.00,Wunderground v.1.15,2013-06-26 13:00:00,
2013-06-26 09:10:00,82.1,75.3,30.03,West,259,8.0,8.0,80,0.00,,,0.00,Wunderground v.1.15,2013-06-26 13:10:00,
2013-06-26 09:20:00,82.4,75.2,30.04,West,266,10.0,10.0,79,0.00,,,0.00,Wunderground v.1.15,2013-06-26 13:20:00,
2013-06-26 09:25:00,82.4,74.8,30.03,WSW,255,9.0,10.0,78,0.00,,,0.00,Wunderground v.1.15,2013-06-26 13:25:00,
2013-06-26 09:30:00,82.3,74.4,30.03,West,275,9.0,11.0,77,0.00,,,0.00,Wunderground v.1.15,2013-06-26 13:30:00,
2013-06-26 09:35:00,81.7,74.5,30.04,WNW,286,11.0,11.0,79,0.00,,,0.00,Wunderground v.1.15,2013-06-26 13:35:00,
2013-06-26 09:45:00,81.4,74.6,30.03,WSW,252,10.0,12.0,80,0.00,,,0.00,Wunderground v.1.15,2013-06-26 13:45:00,
2013-06-26 09:50:00,81.7,74.5,30.03,West,264,10.0,10.0,79,0.00,,,0.00,Wunderground v.1.15,2013-06-26 13:50:00,
2013-06-26 09:55:00,82.1,74.6,30.02,West,275,11.0,11.0,78,0.00,,,0.00,Wunderground v.1.15,2013-06-26 13:55:00,
2013-06-26 10:00:00,82.8,75.2,30.03,West,274,10.0,10.0,78,0.00,,,0.00,Wunderground v.1.15,2013-06-26 14:00:00,
2013-06-26 10:10:00,82.9,74.2,30.02,WSW,243,11.0,14.0,75,0.00,,,0.00,Wunderground v.1.15,2013-06-26 14:10:00,
2013-06-26 10:15:00,83.4,75.0,30.02,WSW,250,11.0,14.0,76,0.00,,,0.00,Wunderground v.1.15,2013-06-26 14:15:00,
2013-06-26 10:25:00,83.6,74.4,30.02,West,266,10.0,11.0,74,0.00,,,0.00,Wunderground v.1.15,2013-06-26 14:25:00,
2013-06-26 10:30:00,83.5,73.9,30.02,WNW,284,11.0,17.0,73,0.00,,,0.00,Wunderground v.1.15,2013-06-26 14:30:00,
2013-06-26 10:35:00,82.9,73.8,30.02,West,269,14.0,17.0,74,0.00,,,0.00,Wunderground v.1.15,2013-06-26 14:35:00,
2013-06-26 10:40:00,83.1,73.9,30.01,West,270,15.0,15.0,74,0.00,,,0.00,Wunderground v.1.15,2013-06-26 14:40:00,
2013-06-26 10:50:00,83.3,74.5,30.02,WSW,250,11.0,13.0,75,0.00,,,0.00,Wunderground v.1.15,2013-06-26 14:50:00,
2013-06-26 10:55:00,83.2,74.4,30.02,West,266,11.0,13.0,75,0.00,,,0.00,Wunderground v.1.15,2013-06-26 14:55:00,
2013-06-26 11:00:00,83.5,73.9,30.02,WSW,245,11.0,11.0,73,0.00,,,0.00,Wunderground v.1.15,2013-06-26 15:00:00,
2013-06-26 11:10:00,83.0,73.9,30.02,West,266,12.0,15.0,74,0.00,,,0.00,Wunderground v.1.15,2013-06-26 15:10:00,
2013-06-26 11:20:00,83.6,74.4,30.02,West,262,12.0,12.0,74,0.00,,,0.00,Wunderground v.1.15,2013-06-26 15:20:00,
2013-06-26 11:25:00,83.6,73.6,30.02,WSW,258,11.0,12.0,72,0.00,,,0.00,Wunderground v.1.15,2013-06-26 15:25:00,
2013-06-26 11:30:00,83.6,74.0,30.02,WNW,285,12.0,15.0,73,0.00,,,0.00,Wunderground v.1.15,2013-06-26 15:30:00,
2013-06-26 11:35:00,84.1,74.1,30.02,WSW,256,12.0,15.0,72,0.00,,,0.00,Wunderground v.1.15,2013-06-26 15:35:00,
2013-06-26 11:40:00,84.3,73.9,30.02,West,264,11.0,11.0,71,0.00,,,0.00,Wunderground v.1.15,2013-06-26 15:40:00,
2013-06-26 11:50:00,84.2,73.8,30.01,West,265,12.0,14.0,71,0.00,,,0.00,Wunderground v.1.15,2013-06-26 15:50:00,
2013-06-26 11:55:00,84.2,73.3,30.02,West,261,12.0,21.0,70,0.00,,,0.00,Wunderground v.1.15,2013-06-26 15:55:00,
2013-06-26 12:00:00,84.1,74.9,30.01,SSE,167,12.0,12.0,74,0.00,,,0.00,Wunderground v.1.15,2013-06-26 16:00:00,
2013-06-26 12:10:00,84.1,74.9,30.01,WSW,252,11.0,11.0,74,0.00,,,0.00,Wunderground v.1.15,2013-06-26 16:10:00,
2013-06-26 12:20:00,83.9,75.1,30.01,SW,235,9.0,16.0,75,0.00,,,0.00,Wunderground v.1.15,2013-06-26 16:20:00,
2013-06-26 12:30:00,83.8,75.0,30.01,SW,215,10.0,10.0,75,0.00,,,0.00,Wunderground v.1.15,2013-06-26 16:30:00,
2013-06-26 12:35:00,83.4,75.0,30.01,West,266,11.0,11.0,76,0.00,,,0.00,Wunderground v.1.15,2013-06-26 16:35:00,
2013-06-26 12:40:00,83.7,74.9,30.01,SW,233,11.0,15.0,75,0.00,,,0.00,Wunderground v.1.15,2013-06-26 16:40:00,
2013-06-26 12:45:00,83.2,74.8,30.01,SW,234,12.0,17.0,76,0.00,,,0.00,Wunderground v.1.15,2013-06-26 16:45:00,
2013-06-26 12:55:00,83.3,74.9,30.01,SW,214,12.0,16.0,76,0.00,,,0.00,Wunderground v.1.15,2013-06-26 16:55:00,
2013-06-26 13:00:00,83.2,74.8,30.01,WSW,242,12.0,12.0,76,0.00,,,0.00,Wunderground v.1.15,2013-06-26 17:00:00,
2013-06-26 13:10:00,83.3,75.3,30.01,SW,229,12.0,16.0,77,0.00,,,0.00,Wunderground v.1.15,2013-06-26 17:10:00,
2013-06-26 13:15:00,83.1,75.1,30.01,WNW,290,12.0,16.0,77,0.00,,,0.00,Wunderground v.1.15,2013-06-26 17:15:00,
2013-06-26 13:20:00,83.2,75.2,30.01,SSW,211,11.0,11.0,77,0.00,,,0.00,Wunderground v.1.15,2013-06-26 17:20:00,
2013-06-26 13:30:00,83.6,75.2,30.01,WSW,241,11.0,13.0,76,0.00,,,0.00,Wunderground v.1.15,2013-06-26 17:30:00,
2013-06-26 13:35:00,83.3,74.9,30.01,West,270,12.0,13.0,76,0.00,,,0.00,Wunderground v.1.15,2013-06-26 17:35:00,
2013-06-26 13:40:00,83.2,74.8,30.01,WSW,243,13.0,17.0,76,0.00,,,0.00,Wunderground v.1.15,2013-06-26 17:40:00,
2013-06-26 13:45:00,83.0,74.3,30.01,WSW,256,14.0,17.0,75,0.00,,,0.00,Wunderground v.1.15,2013-06-26 17:45:00,
2013-06-26 13:55:00,83.1,74.4,30.00,West,276,14.0,14.0,75,0.00,,,0.00,Wunderground v.1.15,2013-06-26 17:55:00,
2013-06-26 14:00:00,83.5,74.7,30.00,WNW,291,12.0,12.0,75,0.00,,,0.00,Wunderground v.1.15,2013-06-26 18:00:00,
2013-06-26 14:10:00,84.1,74.1,30.00,SW,233,11.0,11.0,72,0.00,,,0.00,Wunderground v.1.15,2013-06-26 18:10:00,
2013-06-26 14:15:00,83.6,74.4,29.99,WSW,243,11.0,15.0,74,0.00,,,0.00,Wunderground v.1.15,2013-06-26 18:15:00,
2013-06-26 14:20:00,83.6,73.6,30.00,West,262,12.0,12.0,72,0.00,,,0.00,Wunderground v.1.15,2013-06-26 18:20:00,
2013-06-26 14:25:00,83.5,73.9,29.99,WSW,258,13.0,13.0,73,0.00,,,0.00,Wunderground v.1.15,2013-06-26 18:25:00,
2013-06-26 14:30:00,83.6,73.6,29.99,WSW,248,12.0,21.0,72,0.00,,,0.00,WUHU216DAVISVP2,2013-06-26 18:30:00,
2013-06-26 14:35:00,84.1,74.1,29.98,WSW,256,11.0,13.0,72,0.00,,,0.00,Wunderground v.1.15,2013-06-26 18:35:00,
2013-06-26 14:40:00,83.9,74.3,29.98,West,278,12.0,14.0,73,0.00,,,0.00,Wunderground v.1.15,2013-06-26 18:40:00,
2013-06-26 14:45:00,83.6,74.0,29.99,WSW,257,14.0,15.0,73,0.00,,,0.00,Wunderground v.1.15,2013-06-26 18:45:00,
2013-06-26 14:55:00,83.4,74.6,29.98,SSW,207,14.0,14.0,75,0.00,,,0.00,Wunderground v.1.15,2013-06-26 18:55:00,
2013-06-26 15:00:00,84.1,74.5,29.98,West,264,12.0,12.0,73,0.00,,,0.00,Wunderground v.1.15,2013-06-26 19:00:00,
2013-06-26 15:10:00,84.4,75.2,29.98,SW,231,11.0,14.0,74,0.00,,,0.00,Wunderground v.1.15,2013-06-26 19:10:00,
2013-06-26 15:15:00,84.3,75.1,29.98,WSW,238,13.0,18.0,74,0.00,,,0.00,Wunderground v.1.15,2013-06-26 19:15:00,
2013-06-26 15:20:00,84.2,75.4,29.98,SSW,208,13.0,13.0,75,0.00,,,0.00,Wunderground v.1.15,2013-06-26 19:20:00,
2013-06-26 15:25:00,83.9,75.1,29.98,WSW,258,12.0,13.0,75,0.00,,,0.00,Wunderground v.1.15,2013-06-26 19:25:00,
2013-06-26 15:30:00,84.2,75.0,29.98,WSW,248,12.0,25.0,74,0.00,,,0.00,WUHU216DAVISVP2,2013-06-26 19:30:00,
2013-06-26 15:35:00,84.6,75.4,29.97,WSW,252,12.0,13.0,74,0.00,,,0.00,Wunderground v.1.15,2013-06-26 19:35:00,
2013-06-26 15:40:00,84.4,75.6,29.98,WSW,242,12.0,14.0,75,0.00,,,0.00,Wunderground v.1.15,2013-06-26 19:40:00,
2013-06-26 15:45:00,83.9,75.5,29.97,WSW,255,15.0,15.0,76,0.00,,,0.00,Wunderground v.1.15,2013-06-26 19:45:00,
2013-06-26 15:50:00,84.5,76.1,29.98,SW,227,14.0,17.0,76,0.00,,,0.00,Wunderground v.1.15,2013-06-26 19:50:00,
2013-06-26 16:00:00,83.3,76.1,29.97,West,262,16.0,16.0,79,0.00,,,0.00,Wunderground v.1.15,2013-06-26 20:00:00,
2013-06-26 16:10:00,83.9,75.9,29.96,West,278,14.0,14.0,77,0.00,,,0.00,Wunderground v.1.15,2013-06-26 20:10:00,
2013-06-26 16:15:00,83.7,75.7,29.97,WSW,244,14.0,20.0,77,0.00,,,0.00,Wunderground v.1.15,2013-06-26 20:15:00,
2013-06-26 16:20:00,83.2,76.0,29.97,West,259,15.0,20.0,79,0.00,,,0.00,Wunderground v.1.15,2013-06-26 20:20:00,
2013-06-26 16:25:00,82.5,75.7,29.97,WSW,254,17.0,20.0,80,0.00,,,0.00,Wunderground v.1.15,2013-06-26 20:25:00,
2013-06-26 16:30:00,81.9,75.9,29.98,West,259,17.0,17.0,82,0.00,,,0.00,Wunderground v.1.15,2013-06-26 20:30:00,
2013-06-26 16:40:00,81.4,74.6,29.97,West,259,13.0,13.0,80,0.00,,,0.00,Wunderground v.1.15,2013-06-26 20:40:00,
2013-06-26 16:45:00,81.1,74.3,29.97,WSW,257,13.0,14.0,80,0.00,,,0.00,Wunderground v.1.15,2013-06-26 20:45:00,
2013-06-26 16:50:00,80.2,73.1,29.97,West,271,12.0,12.0,79,0.00,,,0.00,Wunderground v.1.15,2013-06-26 20:50:00,
2013-06-26 16:55:00,79.8,72.7,29.97,West,270,10.0,12.0,79,0.00,,,0.00,Wunderground v.1.15,2013-06-26 20:55:00,
2013-06-26 17:00:00,79.4,72.3,29.96,SW,233,8.0,9.0,79,0.00,,,0.00,Wunderground v.1.15,2013-06-26 21:00:00,
2013-06-26 17:10:00,78.6,71.5,29.96,WSW,258,8.0,11.0,79,0.00,,,0.00,Wunderground v.1.15,2013-06-26 21:10:00,
2013-06-26 17:15:00,78.1,70.7,29.97,WSW,253,10.0,16.0,78,0.00,,,0.00,Wunderground v.1.15,2013-06-26 21:15:00,
2013-06-26 17:20:00,77.9,70.5,29.96,West,270,11.0,11.0,78,0.00,,,0.00,Wunderground v.1.15,2013-06-26 21:20:00,
2013-06-26 17:25:00,77.9,70.9,29.96,WSW,247,9.0,13.0,79,0.00,,,0.00,Wunderground v.1.15,2013-06-26 21:25:00,
2013-06-26 17:30:00,77.8,70.8,29.95,WSW,248,9.0,17.0,79,0.00,,,0.00,WUHU216DAVISVP2,2013-06-26 21:30:00,
2013-06-26 17:35:00,78.0,70.6,29.95,West,259,8.0,8.0,78,0.00,,,0.00,Wunderground v.1.15,2013-06-26 21:35:00,
2013-06-26 17:40:00,78.3,70.9,29.95,WSW,238,5.0,6.0,78,0.00,,,0.00,Wunderground v.1.15,2013-06-26 21:40:00,
2013-06-26 17:45:00,78.4,71.0,29.95,WSW,254,5.0,6.0,78,0.00,,,0.00,Wunderground v.1.15,2013-06-26 21:45:00,
2013-06-26 17:50:00,78.7,71.3,29.95,WSW,245,5.0,12.0,78,0.00,,,0.00,Wunderground v.1.15,2013-06-26 21:50:00,
2013-06-26 18:00:00,78.3,70.9,29.95,WSW,238,8.0,10.0,78,0.00,,,0.00,Wunderground v.1.15,2013-06-26 22:00:00,
2013-06-26 18:10:00,77.1,70.8,29.94,WSW,238,8.0,8.0,81,0.00,,,0.00,Wunderground v.1.15,2013-06-26 22:10:00,
2013-06-26 18:15:00,76.7,70.8,29.94,WSW,245,7.0,8.0,82,0.00,,,0.01,Wunderground v.1.15,2013-06-26 22:15:00,
2013-06-26 18:20:00,76.4,71.2,29.94,SSW,212,6.0,6.0,84,0.00,,,0.01,Wunderground v.1.15,2013-06-26 22:20:00,
2013-06-26 18:25:00,76.5,71.7,29.94,SSW,198,5.0,7.0,85,0.04,,,0.02,Wunderground v.1.15,2013-06-26 22:25:00,
2013-06-26 18:30:00,76.8,71.9,29.94,SSW,207,5.0,9.0,85,0.04,,,0.02,Wunderground v.1.15,2013-06-26 22:30:00,
2013-06-26 18:40:00,77.4,73.2,29.94,WSW,249,6.0,6.0,87,0.04,,,0.02,Wunderground v.1.15,2013-06-26 22:40:00,
2013-06-26 18:45:00,77.8,73.6,29.94,SW,220,7.0,13.0,87,0.00,,,0.02,Wunderground v.1.15,2013-06-26 22:45:00,
2013-06-26 18:50:00,78.1,74.3,29.95,SW,231,7.0,11.0,88,0.00,,,0.02,Wunderground v.1.15,2013-06-26 22:50:00,
2013-06-26 19:00:00,78.9,75.4,29.95,SW,225,8.0,16.0,89,0.02,,,0.02,WUHU216DAVISVP2,2013-06-26 23:00:00,
2013-06-26 19:05:00,79.2,75.3,29.95,SW,229,10.0,16.0,88,0.00,,,0.02,Wunderground v.1.15,2013-06-26 23:05:00,
2013-06-26 19:10:00,79.4,75.5,29.95,West,259,10.0,16.0,88,0.00,,,0.02,Wunderground v.1.15,2013-06-26 23:10:00,
2013-06-26 19:15:00,79.5,75.6,29.95,WSW,238,10.0,18.0,88,0.00,,,0.02,Wunderground v.1.15,2013-06-26 23:15:00,
2013-06-26 19:25:00,79.6,76.1,29.95,SW,231,12.0,14.0,89,0.00,,,0.02,Wunderground v.1.15,2013-06-26 23:25:00,
2013-06-26 19:30:00,79.6,76.1,29.95,WSW,242,11.0,14.0,89,0.00,,,0.02,Wunderground v.1.15,2013-06-26 23:30:00,
2013-06-26 19:35:00,79.7,76.2,29.94,WSW,240,10.0,10.0,89,0.00,,,0.02,Wunderground v.1.15,2013-06-26 23:35:00,
2013-06-26 19:40:00,79.7,75.8,29.95,SW,218,9.0,11.0,88,0.00,,,0.02,Wunderground v.1.15,2013-06-26 23:40:00,
2013-06-26 19:45:00,79.7,75.8,29.94,WSW,240,11.0,14.0,88,0.00,,,0.02,Wunderground v.1.15,2013-06-26 23:45:00,
2013-06-26 19:55:00,79.9,75.3,29.94,West,264,13.0,20.0,86,0.00,,,0.02,Wunderground v.1.15,2013-06-26 23:55:00,
2013-06-26 20:00:00,80.1,75.5,29.95,West,271,13.0,13.0,86,0.00,,,0.02,Wunderground v.1.15,2013-06-27 00:00:00,
2013-06-26 20:10:00,79.9,75.3,29.94,West,274,12.0,12.0,86,0.00,,,0.02,Wunderground v.1.15,2013-06-27 00:10:00,
2013-06-26 20:15:00,79.9,75.7,29.95,WNW,283,12.0,12.0,87,0.00,,,0.02,Wunderground v.1.15,2013-06-27 00:15:00,
2013-06-26 20:20:00,79.8,75.9,29.95,West,270,11.0,11.0,88,0.00,,,0.02,Wunderground v.1.15,2013-06-27 00:20:00,
2013-06-26 20:25:00,79.7,75.5,29.95,West,266,11.0,19.0,87,0.00,,,0.02,Wunderground v.1.15,2013-06-27 00:25:00,
2013-06-26 20:30:00,79.6,75.7,29.94,West,268,12.0,17.0,88,0.00,,,0.02,Wunderground v.1.15,2013-06-27 00:30:00,
2013-06-26 20:35:00,79.6,75.7,29.95,WSW,253,13.0,17.0,88,0.00,,,0.02,Wunderground v.1.15,2013-06-27 00:35:00,
2013-06-26 20:40:00,79.5,75.6,29.95,WSW,242,12.0,12.0,88,0.00,,,0.02,Wunderground v.1.15,2013-06-27 00:40:00,
2013-06-26 20:45:00,79.5,75.3,29.95,West,260,12.0,12.0,87,0.00,,,0.02,Wunderground v.1.15,2013-06-27 00:45:00,
2013-06-26 20:50:00,79.5,75.6,29.94,WSW,252,12.0,12.0,88,0.00,,,0.02,Wunderground v.1.15,2013-06-27 00:50:00,
2013-06-26 21:00:00,79.6,75.4,29.95,WSW,252,13.0,16.0,87,0.00,,,0.02,Wunderground v.1.15,2013-06-27 01:00:00,
2013-06-26 21:10:00,79.7,75.5,29.95,WSW,255,13.0,13.0,87,0.00,,,0.02,Wunderground v.1.15,2013-06-27 01:10:00,
2013-06-26 21:15:00,79.7,75.5,29.96,WNW,282,13.0,13.0,87,0.00,,,0.02,Wunderground v.1.15,2013-06-27 01:15:00,
2013-06-26 21:20:00,79.7,75.8,29.95,WSW,240,13.0,14.0,88,0.00,,,0.02,Wunderground v.1.15,2013-06-27 01:20:00,
2013-06-26 21:25:00,79.7,75.8,29.96,West,272,12.0,14.0,88,0.00,,,0.02,Wunderground v.1.15,2013-06-27 01:25:00,
2013-06-26 21:30:00,79.7,75.8,29.96,West,266,12.0,13.0,88,0.00,,,0.02,Wunderground v.1.15,2013-06-27 01:30:00,
2013-06-26 21:35:00,79.7,75.8,29.96,WSW,257,13.0,15.0,88,0.00,,,0.02,Wunderground v.1.15,2013-06-27 01:35:00,
2013-06-26 21:40:00,79.7,76.2,29.97,West,281,12.0,12.0,89,0.00,,,0.02,Wunderground v.1.15,2013-06-27 01:40:00,
2013-06-26 21:45:00,79.7,75.8,29.97,West,276,13.0,21.0,88,0.00,,,0.02,Wunderground v.1.15,2013-06-27 01:45:00,
2013-06-26 21:50:00,79.7,75.8,29.98,West,259,14.0,15.0,88,0.00,,,0.02,Wunderground v.1.15,2013-06-27 01:50:00,
2013-06-26 21:55:00,79.6,75.7,29.98,WSW,252,12.0,15.0,88,0.00,,,0.02,Wunderground v.1.15,2013-06-27 01:55:00,
2013-06-26 22:00:00,79.6,76.1,29.98,West,269,11.0,11.0,89,0.00,,,0.02,Wunderground v.1.15,2013-06-27 02:00:00,
2013-06-26 22:10:00,79.6,76.1,29.98,West,278,10.0,11.0,89,0.00,,,0.02,Wunderground v.1.15,2013-06-27 02:10:00,
2013-06-26 22:15:00,79.6,76.1,29.98,West,266,10.0,11.0,89,0.00,,,0.02,Wunderground v.1.15,2013-06-27 02:15:00,
2013-06-26 22:20:00,79.6,76.1,29.98,WNW,297,10.0,10.0,89,0.00,,,0.02,Wunderground v.1.15,2013-06-27 02:20:00,
2013-06-26 22:25:00,79.6,76.1,29.98,West,259,11.0,11.0,89,0.00,,,0.02,Wunderground v.1.15,2013-06-27 02:25:00,
2013-06-26 22:30:00,79.6,75.7,29.97,West,265,12.0,13.0,88,0.00,,,0.02,Wunderground v.1.15,2013-06-27 02:30:00,
2013-06-26 22:40:00,79.6,75.7,29.96,WSW,240,10.0,10.0,88,0.00,,,0.02,Wunderground v.1.15,2013-06-27 02:40:00,
2013-06-26 22:45:00,79.7,75.8,29.97,WSW,254,11.0,15.0,88,0.00,,,0.02,Wunderground v.1.15,2013-06-27 02:45:00,
2013-06-26 22:50:00,79.7,76.2,29.97,West,267,11.0,13.0,89,0.00,,,0.02,Wunderground v.1.15,2013-06-27 02:50:00,
2013-06-26 22:55:00,79.6,76.1,29.96,West,271,11.0,13.0,89,0.00,,,0.02,Wunderground v.1.15,2013-06-27 02:55:00,
2013-06-26 23:00:00,79.6,76.1,29.96,WSW,254,11.0,11.0,89,0.00,,,0.02,Wunderground v.1.15,2013-06-27 03:00:00,
2013-06-26 23:10:00,79.5,76.0,29.97,WSW,255,11.0,16.0,89,0.00,,,0.02,Wunderground v.1.15,2013-06-27 03:10:00,
2013-06-26 23:15:00,79.6,76.1,29.96,WNW,286,11.0,16.0,89,0.00,,,0.02,Wunderground v.1.15,2013-06-27 03:15:00,
2013-06-26 23:25:00,79.6,75.7,29.96,WSW,257,12.0,17.0,88,0.00,,,0.02,Wunderground v.1.15,2013-06-27 03:25:00,
2013-06-26 23:30:00,79.6,76.1,29.97,West,266,13.0,19.0,89,0.00,,,0.02,Wunderground v.1.15,2013-06-27 03:30:00,
2013-06-26 23:35:00,79.7,76.2,29.97,West,278,14.0,19.0,89,0.00,,,0.02,Wunderground v.1.15,2013-06-27 03:35:00,
2013-06-26 23:45:00,76.0,69.7,30.00,NW,323,15.0,15.0,81,0.00,,,0.02,Wunderground v.1.15,2013-06-27 03:45:00,
2013-06-26 23:50:00,74.4,70.3,30.00,NNW,331,15.0,15.0,87,0.00,,,0.03,Wunderground v.1.15,2013-06-27 03:50:00,
2013-06-26 23:55:00,73.0,69.6,29.99,WNW,296,12.0,15.0,89,0.63,,,0.08,Wunderground v.1.15,2013-06-27 03:55:00,